Flag Weather past 2 weeks in Orléans, France

Now
55 °F

Clear.


Feels Like: 55 °F
Forecast: 51 / 54 °F
Wind: No wind

Location: Orleans Airport

Current Time: Nov 23, 2014 at 8:10:02 PM

Latest Report: Nov 23, 2014 at 7:30 PM


Visibility: N/A

Pressure: 29.98 "Hg

Humidity: 88%

Dew point: 52 °F

Location of OrléansLocation

Historic Weather in Orléans — Graph

°F

Orléans temperature yesterday

Maximum temperature yesterday: 61 °F (at 1:30 PM)
Minimum temperature yesterday: 45 °F (at 1:30 AM)
Average temperature yesterday: 52 °F

Past Weeks' High & Low Weather Summary

 TemperatureHumidityPressure
High64 °F (Nov 23, 3:00 PM)100% (Nov 10, 2:00 AM)30.18 "Hg (Nov 10, 2:00 AM)
Low37 °F (Nov 19, 2:30 AM)55% (Nov 11, 2:00 PM)29.42 "Hg (Nov 16, 1:30 PM)
Average49 °F89%29.77 "Hg
* Reported Nov 8 7:00 PM — Nov 23 7:00 PM, Orléans, Weather by CustomWeather, © 2014

Note: Actual official high and low records may vary slightly from our data, if they occured in-between our weather recording intervals... More about our weather records

Advertising

Orléans weather history for previous 24 hours

 ConditionsComfort  
Time TempWeatherWind HumidityBarometerVisibility
7:00 PM
Nov 23
55 °FClear.No wind88%29.98 "HgN/A
6:30 PM57 °FClear.2 mph88%29.98 "HgN/A
6:00 PM57 °FClear.3 mph82%29.95 "HgN/A
5:30 PM59 °FClear.3 mph82%29.95 "HgN/A
5:00 PM61 °FClear.No wind77%29.95 "HgN/A
4:30 PM63 °FClear.No wind73%29.95 "HgN/A
4:00 PM63 °FClear.3 mph73%29.95 "HgN/A
3:30 PM64 °FClear.5 mph73%29.92 "HgN/A
3:00 PM64 °FClear.6 mph73%29.95 "HgN/A
2:30 PM63 °FClear.5 mph77%29.95 "HgN/A
2:00 PM63 °FClear.6 mph77%29.95 "HgN/A
1:30 PM63 °FClear.6 mph73%29.95 "HgN/A
1:00 PM61 °FClear.6 mph77%29.95 "HgN/A
12:30 PM59 °FClear.5 mph82%29.95 "HgN/A
12:00 PM59 °FClear.7 mph82%29.98 "HgN/A
11:30 AM55 °FClear.8 mph88%29.98 "HgN/A
11:00 AM55 °FClear.5 mph88%29.98 "HgN/A
10:30 AM54 °FClear.3 mph94%29.98 "HgN/A
10:00 AM52 °FClear.6 mph94%29.98 "HgN/A
9:30 AM50 °FClear.3 mph94%29.98 "Hg5 mi
9:00 AM48 °FClear.No wind94%29.98 "Hg4 mi
8:30 AM48 °FFog.5 mph94%29.95 "Hg3 mi
8:00 AM48 °FClear.3 mph94%29.98 "Hg4 mi
7:30 AM48 °FClear.3 mph100%29.98 "HgN/A
7:00 AM50 °FClear.5 mph94%29.98 "HgN/A
6:30 AM48 °FClear.7 mph100%29.95 "HgN/A
6:00 AM48 °FClear.5 mph94%29.98 "Hg5 mi
5:30 AM50 °FClear.7 mph94%29.98 "Hg5 mi
5:00 AM48 °FFog.6 mph94%29.98 "Hg3 mi
4:30 AM48 °FFog.3 mph94%29.98 "Hg3 mi
4:00 AM48 °FClear.3 mph94%29.98 "Hg4 mi
3:30 AM50 °FClear.3 mph94%29.98 "Hg5 mi
3:00 AM50 °FClear.5 mph94%29.98 "Hg5 mi
2:30 AM50 °FClear.7 mph88%29.98 "Hg4 mi
2:00 AM52 °FClear.8 mph88%30.01 "HgN/A
1:30 AM50 °FClear.7 mph94%30.01 "HgN/A
1:00 AM50 °FClear.7 mph94%30.01 "HgN/A
12:30 AM50 °FClear.7 mph94%30.01 "HgN/A
12:00 AM50 °FClear.6 mph94%30.01 "HgN/A
11:30 PM
Nov 22
52 °FClear.6 mph88%30.01 "HgN/A
11:00 PM52 °FClear.6 mph88%30.01 "HgN/A
10:30 PM52 °FClear.5 mph88%30.01 "HgN/A
10:00 PM52 °FClear.5 mph94%30.01 "HgN/A
9:30 PM52 °FClear.7 mph88%30.01 "HgN/A
9:00 PM52 °FClear.6 mph94%30.01 "HgN/A
8:30 PM54 °FClear.3 mph88%30.01 "HgN/A
8:00 PM54 °FClear.6 mph94%30.01 "HgN/A
Weather by CustomWeather, © 2014

See weather overviewHow to use our weather pages